Location: Eschertshofen
(49.3064°N, 11.5756°E)
Time: 13:16:37
(UTC+00:00)

Cosmos 1300 Rocket - Pass Details

Date: 18 September 2020
Orbit: 602 x 626 km, 82.5° (Epoch: 21 October)

Event Time Altitude Azimuth Distance (km) Brightness Sun altitude
Rises 18:16:51 0° 166° (SSE) 2,877 6.7 -10.0°
Reaches altitude 10° 18:19:10 10° 159° (SSE) 1,981 5.8 -10.4°
Maximum altitude 18:23:13 37° 91° (E) 966 4.1 -11.1°
Drops below altitude 10° 18:27:19 10° 24° (NNE) 2,008 6.1 -11.7°
Sets 18:29:40 0° 17° (NNE) 2,922 7.0 -12.1°
